AirNav   Everest Fuels
 
 1147 users online  

7CA1 Abraham Ranch Airport
Lucerne Valley, California, USA

GOING TO LUCERNE VALLEY?


FAA INFORMATION EFFECTIVE 11 AUGUST 2022

Location

FAA Identifier: 7CA1
Lat/Long: 34-24-52.9990N 116-37-21.0850W
34-24.883317N 116-37.351417W
34.4147219,-116.6225236
(estimated)
Elevation: 2850 ft. / 869 m (estimated)
Variation: 14E (1985)
From city: 16 miles SE of LUCERNE VALLEY, CA
Time zone: UTC -7 (UTC -8 during Standard Time)
Zip code: 92285

Airport Operations

Airport use: Private use. Permission required prior to landing
Activation date: 10/1978
Control tower: no
ARTCC: LOS ANGELES CENTER
FSS: RIVERSIDE FLIGHT SERVICE STATION
Attendance: UNATNDD
Wind indicator: yes
Segmented circle: no

Airport Communications

WX AWOS-3 at L35 (15 nm SW): 135.925 (909-585-4033)
  • UNICOM 123.500.

Nearby radio navigation aids

VOR radial/distance  VOR name  Freq  Var
HECr184/24.3HECTOR VORTAC112.7015E
DAGr169/32.9DAGGETT VORTAC113.2015E
PSPr331/34.1PALM SPRINGS VORTAC115.5013E
VCVr092/39.4VICTORVILLE VOR/DME109.0514E

Airport Services

Runway Information

Runway 9/27

Dimensions: 4000 x 75 ft. / 1219 x 23 m
Surface: dirt
RUNWAY 9  RUNWAY 27
Traffic pattern: rightleft

Airport Ownership and Management from official FAA records

Ownership: Privately-owned
Owner: HAROLD W ABRAHAM
455 BELLE BREEZE PL
GALLATIN, TN 37066
Phone (516) 609-6019
Manager: JOHN KING
2537 PACIFIC COAST HWY, 221D
TORRANCE , CA 90505
Phone (310) 994-8756

Airport Operational Statistics

Aircraft based on the field: 4
Single engine airplanes: 2
Multi engine airplanes: 2
    

Additional Remarks

FOR CD CTC LOS ANGELES ARTCC AT 661-575-2079.

Instrument Procedures

There are no published instrument procedures at 7CA1.

Some nearby airports with instrument procedures:

L35 - Big Bear City Airport (15 nm SW)
KDAG - Barstow-Daggett Airport (28 nm N)
KAPV - Apple Valley Airport (29 nm W)
KREI - Redlands Municipal Airport (33 nm SW)
KPSP - Palm Springs International Airport (36 nm S)
 
Loc | Ops | Rwys | IFR | FBO | Links
Com | Nav | Svcs | Stats | Notes

Luxivair - San Bernardino International Airport
 
Area around 7CA1 (Abraham Ranch Airport)
 
Road maps at: MapQuest Bing Google
 
Aerial photo
WARNING: Photo may not be current or correct
Aerial photo of 7CA1 (Abraham Ranch Airport)
Photo by John King

Do you have a better or more recent aerial photo of Abraham Ranch Airport that you would like to share? If so, please send us your photo.

 
Sectional chart

 
Airport distance calculator
Flying to Abraham Ranch Airport? Find the distance to fly.

From to 7CA1

Sunrise and sunset
Times for 13-Aug-2022
 Local
(UTC-7)
 Zulu
(UTC)
Morning civil twilight05:4012:40
Sunrise06:0713:07
Sunset19:3602:36
Evening civil twilight20:0203:02

Current date and time
Zulu (UTC)  13-Aug-2022 20:59:53
Local (UTC-7)  13-Aug-2022 13:59:53
 
METAR
KL35 
15nm SW 
132055Z AUTO 14006KT 4SM +RA SCT038 BKN048 OVC090 15/13 A3039 RMK AO2 P0027
KNXP 
24nm E 
131956Z AUTO 32003KT 10SM BKN120 31/19 A3009 RMK AO2 SLP152 T03060194
KDAG 
27nm N 
132050Z AUTO 06009G18KT 10SM CLR 36/14 A2999 RMK AO2 SLP124 T03560144 58017
TAF
KNXP 
24nm E 
1315/1415 12006KT 9999 FEW050 SCT120 QNH3004INS BECMG 1319/1321 18010G20KT 9999 -SHRA VCTS FEW055 SCT065CB QNH2996INS BECMG 1402/1404 26008KT 9999 FEW100 SCT180 QNH2999INS FM140930 VRB05KT 9999 SCT180 QNH3000INS T34/1322Z T26/1413Z
KDAG 
27nm N 
131720Z 1318/1418 10006KT P6SM VCSH FEW050 SCT110 FM132000 10012KT P6SM VCTS SCT100CB BKN200 FM140300 23011KT P6SM FEW150 SCT250 FM140900 VRB05KT P6SM FEW150 SCT250
NOTAMs
Click for the latest NOTAMs
NOTAMs are issued by the DoD/FAA and will open in a separate window not controlled by AirNav.

 

 
 

Would you like to see your business listed on this page?

 If your business provides an interesting product or service to pilots, flight crews, aircraft, or users of the Abraham Ranch Airport, you should consider listing it here.  To start the listing process, click on the button below
 
Add a business
 

Other Pages about Abraham Ranch Airport

Update a link
 
Copyright © AirNav, LLC. All rights reserved. Privacy Policy  Contact